IRIDIUM 94 [S]

Last updated on Fri Jul 15 2016 18:38:29 GMT+0100 (British Summer Time)

1 27374U 02005C 16197.50701900 .00000070 00000-0 18004-4 0 9990 2 27374 86.3941 36.4779 0003107 86.2461 334.9104 14.34219436767696
UTC large
Height (km)
Speed (km/s)
/
Latitude / Longitude
Inclination (degrees)
Orbital Period (minutes)
Azimuth
Elevation
Range (km)
Doppler Factor

Next 0 passes for location: London (51.5072 / 0.1276)

Sorry there are no passes over London.